Location: Unspecified
(43.4680°N, 87.1740°E)
Time: 04:38:00
(UTC+00:00)

Nadezhda 2 Rocket - Pass Details

Date: 17 April 2021
Orbit: 947 x 1012 km, 83.0° (Epoch: 17 May)

Event Time Altitude Azimuth Distance (km) Brightness Sun altitude
Rises 16:16:28 0° 353° (N) 3,709 8.5 -29.9°
Reaches altitude 10° 16:19:02 10° 354° (N) 2,747 7.6 -30.1°
Enters shadow 16:24:50 74° 31° (NNE) 1,013 4.5 -30.7°
